TimeCDT,TemperatureF,Dew PointF,Humidity,Sea Level PressureIn,VisibilityMPH,Wind Direction,Wind SpeedMPH,Gust SpeedMPH,PrecipitationIn,Events,Conditions,WindDirDegrees,DateUTC
12:52 AM,39.9,39.0,97,30.18,0.8,North,13.8,-,N/A,,Mist,350,2013-05-05 05:52:00
1:52 AM,39.9,37.9,93,30.16,0.8,North,11.5,-,N/A,,Mist,360,2013-05-05 06:52:00
2:52 AM,39.9,39.9,100,30.15,0.8,North,12.7,-,N/A,,Mist,350,2013-05-05 07:52:00
3:52 AM,39.9,39.9,100,30.15,1.2,North,11.5,-,N/A,,Overcast,360,2013-05-05 08:52:00
4:06 AM,39.2,39.2,100,30.12,2.0,North,11.5,-,N/A,,Overcast,360,2013-05-05 09:06:00
4:41 AM,39.2,39.2,100,30.12,1.5,North,10.4,-,N/A,,Overcast,360,2013-05-05 09:41:00
4:52 AM,39.9,39.9,100,30.15,1.5,North,11.5,-,N/A,,Overcast,360,2013-05-05 09:52:00
5:23 AM,39.2,39.2,100,30.13,1.0,North,11.5,-,N/A,,Overcast,350,2013-05-05 10:23:00
5:36 AM,39.2,39.2,100,30.13,1.2,North,11.5,-,N/A,,Overcast,350,2013-05-05 10:36:00
5:50 AM,39.2,39.2,100,30.13,2.5,NNW,10.4,-,0.01,Rain,Light Rain,340,2013-05-05 10:50:00
5:52 AM,39.9,39.9,100,30.16,2.5,NNW,11.5,-,0.01,Rain,Light Rain,340,2013-05-05 10:52:00
6:11 AM,39.2,39.2,100,30.13,4.0,NNW,12.7,-,0.01,,Overcast,340,2013-05-05 11:11:00
6:48 AM,39.2,39.2,100,30.14,2.5,North,12.7,-,0.01,,Overcast,350,2013-05-05 11:48:00
6:52 AM,39.9,39.0,97,30.17,2.5,North,13.8,-,0.01,,Overcast,350,2013-05-05 11:52:00
7:25 AM,39.2,39.2,100,30.15,3.0,North,11.5,-,N/A,,Overcast,360,2013-05-05 12:25:00
7:52 AM,39.9,39.0,97,30.17,4.0,North,12.7,-,N/A,,Overcast,360,2013-05-05 12:52:00
9:52 AM,43.0,42.1,97,30.18,3.0,North,10.4,-,N/A,,Overcast,360,2013-05-05 14:52:00
10:30 AM,42.8,42.8,100,30.15,2.0,North,13.8,-,N/A,,Overcast,350,2013-05-05 15:30:00
10:41 AM,42.8,42.8,100,30.15,1.5,North,11.5,-,N/A,,Overcast,360,2013-05-05 15:41:00
10:52 AM,44.1,43.0,96,30.18,1.0,North,13.8,-,N/A,,Overcast,360,2013-05-05 15:52:00
11:12 AM,44.6,42.8,93,30.15,1.8,North,11.5,-,N/A,,Overcast,360,2013-05-05 16:12:00
11:17 AM,44.6,42.8,93,30.15,3.0,North,11.5,-,N/A,,Overcast,360,2013-05-05 16:17:00
11:52 AM,46.0,43.0,89,30.19,5.0,North,11.5,-,N/A,,Overcast,360,2013-05-05 16:52:00
12:13 PM,46.4,42.8,87,30.15,7.0,North,12.7,20.7,N/A,,Overcast,10,2013-05-05 17:13:00
12:52 PM,46.9,43.0,86,30.17,8.0,North,11.5,-,N/A,,Overcast,360,2013-05-05 17:52:00
1:52 PM,48.0,44.1,86,30.16,8.0,North,11.5,-,N/A,,Overcast,350,2013-05-05 18:52:00
2:52 PM,48.9,44.1,83,30.16,8.0,North,10.4,-,N/A,,Overcast,350,2013-05-05 19:52:00
3:52 PM,50.0,46.0,86,30.14,9.0,North,11.5,-,N/A,,Overcast,350,2013-05-05 20:52:00
4:52 PM,51.1,46.0,83,30.13,10.0,North,10.4,-,N/A,,Overcast,360,2013-05-05 21:52:00
5:49 PM,51.8,46.4,82,30.11,10.0,North,13.8,-,N/A,,Overcast,10,2013-05-05 22:49:00
5:52 PM,51.1,46.0,83,30.13,10.0,North,12.7,-,N/A,,Overcast,10,2013-05-05 22:52:00
6:52 PM,50.0,46.0,86,30.13,10.0,North,10.4,-,N/A,,Overcast,360,2013-05-05 23:52:00
7:52 PM,50.0,46.0,86,30.13,10.0,NNW,10.4,-,N/A,,Overcast,330,2013-05-06 00:52:00
8:52 PM,48.9,45.0,86,30.13,10.0,NNW,6.9,-,N/A,,Overcast,340,2013-05-06 01:52:00
9:52 PM,48.0,45.0,89,30.13,10.0,NNW,6.9,-,N/A,,Overcast,340,2013-05-06 02:52:00
10:52 PM,46.9,44.1,90,30.13,8.0,NW,5.8,-,N/A,,Overcast,320,2013-05-06 03:52:00
11:52 PM,46.0,44.1,93,30.13,8.0,NW,6.9,-,N/A,,Overcast,320,2013-05-06 04:52:00